Погода в Вислой Поляне

Россия / Липецкая область     52°08′57″N   38°36′53″E
темп.,
°C
ветер,
м/с
пор.,
м/с
влажн.,
%
обл.,
%
осадки,
мм/ч
давл.,
гПа
погр.,
м
16 мая, вс
вс1600:00+14юз22811 0.0 101324
03:00+13юз228330 0.0 101410
06:00+14ю22803 0.0 101321
09:00+20ю23635 0.0 1014402
12:00+23ю234520 0.0 10141760
15:00+24ююв1243100 0.0 10131799
18:00+23св22598 0.0 101340
21:00+18св456673 0.0 101370
17 мая, пн
пн1700:00+16всв51189100 1.3 1013222
03:00+15в489597 1.3 1012134
06:00+15в410857 0.0 1011190
09:00+20вюв51066100 0.0 1011360
12:00+25вюв712471 0.0 10101035
15:00+26вюв714495 0.0 10092066
18:00+23вюв7146023 0.0 1009632
21:00+19вюв5157599 0.0 1009333
18 мая, вт
вт1800:00+17юв513705 0.0 1009305
03:00+15вюв411715 0.0 1008188
06:00+14вюв4977100 0.0 1009188
09:00+20юв596280 0.0 1009457
12:00+24юв584793 0.0 1008840
15:00+25вюв6952100 0.0 10071345
18:00+23юв5106279 0.0 1006427
21:00+19юв347188 0.0 100648
19 мая, ср
ср1900:00+17вюв348120 0.0 100560
03:00+15ю499397 0.2 1005255
06:00+15юв3791100 0.1 1006300
09:00+18юв5775100 0.1 1006920
12:00+17ююв6879100 1.0 1006973
15:00+19ю896985 2.6 10061411
18:00+17ю59709 0.4 1006968
21:00+13ююв3889100 1.0 1006151
20 мая, чт
чт2000:00+11ююв49955 0.0 1006258
03:00+10ю51097100 0.0 1006481
06:00+12ю6109198 0.3 1006738
09:00+13ююз81083100 0.6 1007891
12:00+11юз71190100 0.4 1009811
15:00+12юз61083100 0.6 10111063
18:00+14юз5118199 0.3 1012921
21:00+12ююз498891 0.4 1013237